C/2010 U3 ( Boattini )

Japanese version
Home page
Updated on March 25, 2017

---------------------------------------------------------------------

* Profile

Discovery Date October 31, 2010
Magnitude 19.4 mag
Discoverer A. Boattini (Mt. Lemmon)

* Pictures

* Orbital Elements

Epoch 2019 Mar. 18.0 TT = JDT 2458560.5
T 2019 Feb. 26.63100 TT                                 MPCW
q   8.4455302            (2000.0)            P               Q
z  +0.0001978      Peri.   88.08653     -0.36204988     -0.74305530
 +/-0.0000007      Node    43.06730     +0.07255604     -0.62443455
e   0.9983297      Incl.   55.51179     +0.92933068     -0.24072872
From 812 observations 2009 Sept. 16-2017 Mar. 2, mean residual 0".6.

* Finding Charts

* Magnitudes Graph

        m1 = 7.5 + 5 log d + 5.0 log r

---------------------------------------------------------------------

The orbital elements are published on M.P.E.C. 2017-E59.
The charts are made with StellaNavigator Ver.8 (AstroArts).
The magnitudes graphs are made with Comet for Windows.

---------------------------------------------------------------------

Copyright(C) Seiichi Yoshida (comet@aerith.net). All rights reserved.